THORAD DELTA 1 DEB, 13527

Orbit data source: Space-Track

THORAD DELTA 1 DEB, 13527 is space debris in SSO originally from a launch on Fri, 15 Nov 1974 UTC launched from the Air Force Western Test Range (AFWTR). Debris objects in space refer to the collection of defunct objects orbiting the Earth. Examples of debris include non-operational satellites, rocket bodies, and fragments generated from explosions, collisions, or faulty payload assembly.

Loading next visibility...
Identifier
13527, 1974-089EN
Orbit
SSO
Country
Flag of USUS
Related business
Manufacturer
Unknown
Mission
Spacecraft
Bus & Motor
Unknown
Mass
Unknown
Launch date (UTC)
1974-11-15 (51 years ago)
Launch vehicle
Unknown
Launch site
Air Force Western Test Range (AFWTR)
Object type
Payload
Rocket body
Debris
Shape & HBR
Unknown shape, 0.1 m
Radar Cross Section
Small (<0.1 m²)

Expand to show TLE details & history
Last TLE update: 13 hours ago

TLE from 13 hours ago
0 THORAD DELTA 1 DEB
1 13527U 74089EN  26048.55834588  .00001150  00000-0  71093-2 0  9991
2 13527 102.9115  36.1724 0323173  96.1612  21.6385 12.43720735 55959
Epoch: 2026-02-17T13:24Z
TLE epoch observation values (Epoch: 2026-02-17T13:24:01.084Z)
Latitude
58.38479°
Longitude
-110.62088°
Altitude
1,265.228 km
Speed
7.336 km/s
True Right ascension
15h 51m 40s
True Declination
58° 14' 29"
Sunlit
Object was in daylight at epoch
Visualization orbit readout
Latitude
Unknown
Longitude
Unknown
Altitude
Unknown
Speed
Unknown
Apparent Right ascension
Unknown
Apparent Declination
Unknown
Sunlit
N/A
Visualization observer readout
Local Sidereal Time
05:44:01
Azimuth
Unknown
Elevation
Unknown
Doppler factor
Unknown
Orbital elements
Apogee altitude
1,742.72 km
Perigee altitude
1,234.264 km
Semi-major axis
7,866.629 km
Eccentricity
0.03232
Inclination
102.9115°
RAAN
36.1724°
Arg. of periapsis
96.1612°
True anomaly
23.05713°
Mean anomaly
21.6385°
Eccentric anomaly
22.34239°
Mean motion
3.11071 °/min
Orbital period
115.73 mins
BSTAR
0.0071093
Loading maneuver chart data...
Computing Atmospheric mass density...

Documentation

Showing up to 5 results
|